• In Hungary
  • List of Countries
  • For 7 days
  • Water Temperature
  • Satellite Maps
  • Weather Map
  • News
  • Weather Widgets
  • user-avatar
    Login

    Hourly Weather Kalgoorlie

    Today, 22 November, Wednesday

    Time Temperature Precipitation Wind Pressure Humidity
    00:00 +13°C° 0 mm 8 mps 732 mmHg 55%
    01:00 +12°C° 0 mm 8 mps 732 mmHg 56%
    02:00 +11°C° 0 mm 7 mps 732 mmHg 59%
    03:00 +11°C° 0 mm 7 mps 732 mmHg 61%
    04:00 +10°C° 0 mm 6 mps 732 mmHg 64%
    05:00 +10°C° 0 mm 6 mps 732 mmHg 66%
    06:00 +11°C° 0 mm 6 mps 732 mmHg 59%
    07:00 +14°C° 0 mm 7 mps 732 mmHg 52%
    08:00 +15°C° 0 mm 7 mps 733 mmHg 46%
    09:00 +17°C° 0 mm 7 mps 732 mmHg 39%
    10:00 +20°C° 0 mm 6 mps 732 mmHg 31%
    11:00 +23°C° 0 mm 6 mps 731 mmHg 23%
    12:00 +24°C° 0 mm 6 mps 731 mmHg 21%
    13:00 +26°C° 0 mm 6 mps 730 mmHg 18%
    14:00 +28°C° 0 mm 6 mps 730 mmHg 16%
    15:00 +28°C° 0 mm 6 mps 730 mmHg 16%
    16:00 +28°C° 0 mm 6 mps 730 mmHg 16%
    17:00 +28°C° 0 mm 6 mps 730 mmHg 16%
    18:00 +27°C° 0 mm 6 mps 730 mmHg 18%
    19:00 +26°C° 0 mm 6 mps 730 mmHg 21%
    20:00 +24°C° 0 mm 6 mps 731 mmHg 23%
    21:00 +22°C° 0 mm 7 mps 731 mmHg 32%
    22:00 +20°C° 0 mm 7 mps 731 mmHg 41%
    23:00 +18°C° 0 mm 8 mps 732 mmHg 49%

    Tomorrow, 23 November, Thursday

    Time Temperature Precipitation Wind Pressure Humidity
    00:00 +17°C° 0 mm 7 mps 732 mmHg 55%
    01:00 +16°C° 0 mm 7 mps 732 mmHg 60%
    02:00 +15°C° 0 mm 6 mps 731 mmHg 65%
    03:00 +14°C° 0 mm 6 mps 731 mmHg 68%
    04:00 +13°C° 0 mm 5 mps 731 mmHg 70%
    05:00 +13°C° 0 mm 5 mps 732 mmHg 73%
    06:00 +14°C° 0 mm 5 mps 732 mmHg 65%
    07:00 +16°C° 0 mm 5 mps 732 mmHg 57%
    08:00 +17°C° 0 mm 5 mps 732 mmHg 50%
    09:00 +20°C° 0 mm 5 mps 732 mmHg 42%
    10:00 +22°C° 0 mm 5 mps 731 mmHg 33%
    11:00 +25°C° 0 mm 5 mps 731 mmHg 25%
    12:00 +26°C° 0 mm 5 mps 730 mmHg 22%
    13:00 +27°C° 0 mm 5 mps 730 mmHg 20%
    14:00 +29°C° 0 mm 5 mps 729 mmHg 18%
    15:00 +29°C° 0 mm 5 mps 729 mmHg 18%
    16:00 +29°C° 0 mm 4 mps 729 mmHg 18%
    17:00 +29°C° 0 mm 4 mps 728 mmHg 18%
    18:00 +28°C° 0 mm 4 mps 729 mmHg 20%
    19:00 +27°C° 0 mm 5 mps 729 mmHg 22%
    20:00 +26°C° 0 mm 5 mps 729 mmHg 24%
    21:00 +25°C° 0 mm 5 mps 729 mmHg 28%
    22:00 +23°C° 0 mm 6 mps 730 mmHg 31%
    23:00 +22°C° 0 mm 6 mps 730 mmHg 34%

    Day after tomorrow, 24 November, Friday

    Time Temperature Precipitation Wind Pressure Humidity
    00:00 +21°C° 0 mm 6 mps 729 mmHg 38%
    01:00 +20°C° 0 mm 6 mps 729 mmHg 41%
    02:00 +20°C° 0 mm 6 mps 729 mmHg 45%
    03:00 +19°C° 0 mm 6 mps 729 mmHg 49%
    04:00 +17°C° 0 mm 6 mps 729 mmHg 53%
    05:00 +16°C° 0 mm 6 mps 729 mmHg 57%
    06:00 +19°C° 0 mm 6 mps 729 mmHg 52%
    07:00 +21°C° 0 mm 6 mps 729 mmHg 48%
    08:00 +22°C° 0 mm 6 mps 729 mmHg 43%
    09:00 +24°C° 0 mm 6 mps 729 mmHg 36%
    10:00 +27°C° 0 mm 5 mps 729 mmHg 30%
    11:00 +29°C° 0 mm 5 mps 729 mmHg 23%
    12:00 +30°C° 0 mm 4 mps 728 mmHg 21%
    13:00 +31°C° 0 mm 3 mps 727 mmHg 18%
    14:00 +31°C° 0 mm 3 mps 727 mmHg 16%
    15:00 +33°C° 0 mm 3 mps 726 mmHg 15%
    16:00 +32°C° 0 mm 2 mps 726 mmHg 15%
    17:00 +32°C° 0 mm 2 mps 726 mmHg 14%
    18:00 +31°C° 0 mm 3 mps 726 mmHg 15%
    19:00 +30°C° 0 mm 4 mps 726 mmHg 15%
    20:00 +29°C° 0 mm 5 mps 726 mmHg 16%
    21:00 +29°C° 0 mm 6 mps 726 mmHg 16%
    22:00 +28°C° 0 mm 7 mps 726 mmHg 15%
    23:00 +28°C° 0 mm 8 mps 725 mmHg 15%

    25 November, Saturday

    Time Temperature Precipitation Wind Pressure Humidity
    00:00 +27°C° 0 mm 8 mps 725 mmHg 16%
    01:00 +27°C° 0 mm 7 mps 725 mmHg 17%
    02:00 +26°C° 0 mm 7 mps 724 mmHg 18%
    03:00 +26°C° 0 mm 7 mps 724 mmHg 20%
    04:00 +24°C° 0 mm 6 mps 725 mmHg 22%
    05:00 +24°C° 0 mm 6 mps 725 mmHg 24%
    06:00 +26°C° 0 mm 6 mps 725 mmHg 24%
    07:00 +28°C° 0 mm 6 mps 726 mmHg 24%
    08:00 +29°C° 0 mm 6 mps 726 mmHg 25%
    09:00 +32°C° 0 mm 6 mps 726 mmHg 22%
    10:00 +34°C° 0 mm 5 mps 726 mmHg 20%
    11:00 +35°C° 0 mm 5 mps 726 mmHg 17%
    12:00 +36°C° 0 mm 5 mps 725 mmHg 16%
    13:00 +37°C° 0 mm 4 mps 725 mmHg 15%
    14:00 +37°C° 0 mm 4 mps 724 mmHg 14%
    15:00 +36°C° 0.1 mm 4 mps 724 mmHg 16%
    16:00 +36°C° 0.1 mm 4 mps 724 mmHg 18%
    17:00 +35°C° 0.1 mm 4 mps 724 mmHg 20%
    18:00 +34°C° 0.4 mm 5 mps 725 mmHg 23%
    19:00 +32°C° 0.4 mm 5 mps 725 mmHg 27%
    20:00 +30°C° 0.4 mm 5 mps 726 mmHg 30%
    21:00 +29°C° 0.1 mm 6 mps 726 mmHg 33%
    22:00 +28°C° 0.1 mm 6 mps 726 mmHg 36%
    23:00 +26°C° 0.1 mm 6 mps 726 mmHg 39%

    26 November, Sunday

    Time Temperature Precipitation Wind Pressure Humidity
    00:00 +26°C° 0 mm 6 mps 726 mmHg 42%
    01:00 +24°C° 0 mm 6 mps 726 mmHg 45%
    02:00 +23°C° 0 mm 6 mps 726 mmHg 48%
    03:00 +23°C° 0 mm 6 mps 726 mmHg 48%
    04:00 +22°C° 0 mm 5 mps 726 mmHg 48%
    05:00 +22°C° 0 mm 5 mps 726 mmHg 48%
    06:00 +26°C° 0 mm 6 mps 727 mmHg 40%
    07:00 +28°C° 0 mm 7 mps 727 mmHg 32%
    08:00 +31°C° 0 mm 8 mps 728 mmHg 24%
    09:00 +33°C° 0 mm 8 mps 727 mmHg 22%
    10:00 +35°C° 0 mm 8 mps 727 mmHg 21%
    11:00 +38°C° 0 mm 8 mps 727 mmHg 19%
    12:00 +38°C° 0 mm 8 mps 726 mmHg 18%
    13:00 +39°C° 0 mm 8 mps 725 mmHg 17%
    14:00 +40°C° 0 mm 8 mps 724 mmHg 17%
    15:00 +39°C° 0 mm 7 mps 724 mmHg 17%
    16:00 +39°C° 0 mm 7 mps 724 mmHg 17%
    17:00 +39°C° 0 mm 6 mps 724 mmHg 17%
    18:00 +38°C° 0 mm 6 mps 724 mmHg 18%
    19:00 +36°C° 0 mm 6 mps 724 mmHg 20%
    20:00 +35°C° 0 mm 6 mps 724 mmHg 21%
    21:00 +34°C° 0.1 mm 7 mps 724 mmHg 22%
    22:00 +34°C° 0.1 mm 8 mps 724 mmHg 24%
    23:00 +33°C° 0.1 mm 9 mps 723 mmHg 26%

    27 November, Monday

    Time Temperature Precipitation Wind Pressure Humidity
    00:00 +32°C° 0 mm 9 mps 723 mmHg 29%
    01:00 +31°C° 0 mm 9 mps 723 mmHg 33%
    02:00 +29°C° 0 mm 9 mps 722 mmHg 37%
    03:00 +29°C° 0 mm 9 mps 723 mmHg 36%
    04:00 +28°C° 0 mm 8 mps 723 mmHg 35%
    05:00 +28°C° 0 mm 8 mps 723 mmHg 35%
    06:00 +31°C° 0 mm 9 mps 723 mmHg 33%
    07:00 +32°C° 0 mm 11 mps 724 mmHg 31%
    08:00 +34°C° 0 mm 12 mps 724 mmHg 28%
    09:00 +36°C° 0 mm 12 mps 723 mmHg 26%
    10:00 +38°C° 0 mm 12 mps 723 mmHg 24%
    11:00 +39°C° 0 mm 12 mps 722 mmHg 21%
    12:00 +41°C° 0 mm 12 mps 722 mmHg 19%
    13:00 +41°C° 0 mm 11 mps 721 mmHg 17%
    14:00 +42°C° 0 mm 10 mps 720 mmHg 15%
    15:00 +40°C° 0.1 mm 9 mps 720 mmHg 16%
    16:00 +39°C° 0.1 mm 9 mps 720 mmHg 16%
    17:00 +39°C° 0.1 mm 9 mps 720 mmHg 17%
    18:00 +38°C° 0 mm 8 mps 720 mmHg 18%
    19:00 +36°C° 0 mm 7 mps 720 mmHg 19%
    20:00 +35°C° 0 mm 6 mps 720 mmHg 20%
    21:00 +34°C° 0 mm 6 mps 720 mmHg 23%
    22:00 +33°C° 0 mm 6 mps 720 mmHg 26%
    23:00 +32°C° 0 mm 6 mps 720 mmHg 28%
    Show more